Location: Ocean City
(38.3360°N, 75.0850°W)
Time: 19:44:38
(UTC-04:00)

BEESAT 2 - Pass Details

Date: 24 May 2019
Orbit: 502 x 528 km, 64.9° (Epoch: 17 June)

Event Time Altitude Azimuth Distance (km) Brightness Sun altitude
Rises 04:28:08 0° 315° (NW) 2,669 ? -13.0°
Reaches altitude 10° 04:30:38 10° 302° (WNW) 1,775 ? -12.6°
Maximum altitude 04:33:50 24° 248° (WSW) 1,129 ? -12.1°
Enters shadow 04:36:17 14° 201° (SSW) 1,534 ? -11.7°
